This is the latest recevied weather packets stored in our database for station/object IZ7EXI-13. If no packets are shown the sender has not sent any weather packets the latest 10 day(s).
| Time | Temp. | Humidity | Pressure | Rain* | Wind** | Luminosity | Snow |
|---|---|---|---|---|---|---|---|
| 1777334783 | 16.11° C | 63% | 1019.2 hPa | - | - | - | - |
| 1777333882 | 16.11° C | 64% | 1019.3 hPa | - | - | - | - |
| 1777332982 | 16.11° C | 64% | 1019.2 hPa | - | - | - | - |
| 1777332082 | 16.11° C | 63% | 1019.2 hPa | - | - | - | - |
| 1777331182 | 16.11° C | 63% | 1019.4 hPa | - | - | - | - |
| 1777330282 | 16.11° C | 62% | 1019.3 hPa | - | - | - | - |
| 1777329412 | 16.11° C | 63% | 1019.3 hPa | - | - | - | - |
| 1777329381 | 16.11° C | 63% | 1019.3 hPa | - | - | - | - |
| 1777328481 | 16.67° C | 62% | 1019.3 hPa | - | - | - | - |
| 1777327581 | 16.67° C | 64% | 1019.3 hPa | - | - | - | - |
| 1777326681 | 16.67° C | 60% | 1019.3 hPa | - | - | - | - |
| 1777325780 | 16.67° C | 64% | 1019.4 hPa | - | - | - | - |
| 1777324880 | 16.67° C | 58% | 1019.4 hPa | - | - | - | - |
| 1777323980 | 16.67° C | 57% | 1019.3 hPa | - | - | - | - |
| 1777323080 | 17.22° C | 56% | 1019.3 hPa | - | - | - | - |
| 1777322180 | 18.33° C | 55% | 1019.3 hPa | - | - | - | - |
| 1777321279 | 18.33° C | 54% | 1019.3 hPa | - | - | - | - |
| 1777320379 | 18.33° C | 56% | 1019.4 hPa | - | - | - | - |
| 1777319479 | 18.89° C | 64% | 1019.4 hPa | - | - | - | - |
| 1777318579 | 18.89° C | 62% | 1019.4 hPa | - | - | - | - |
| 1777317679 | 19.44° C | 64% | 1019.4 hPa | - | - | - | - |
| 1777316778 | 19.44° C | 59% | 1019.2 hPa | - | - | - | - |
| 1777315878 | 20° C | 58% | 1019.1 hPa | - | - | - | - |
| 1777314978 | 20.56° C | 55% | 1018.9 hPa | - | - | - | - |
| 1777314078 | 21.11° C | 50% | 1018.7 hPa | - | - | - | - |
* Rain since midnight (hover to see other rain measurements)
** Current wind speed in m/s (hover to see current wind gust speed)